| time (UTC) | temp C | wind direction | speed KPH | gust KPH | rain 1hr cm | rain 24hr cm | rain mn cm | humidity % | barometer mb |
| 20260508064831 | 11 | 68 | 0.0 | 0.0 | 0.00 | 0.00 | 0.00 | 100 | 1014.9 |
| 20260508064329 | 11 | 92 | 0.0 | 0.0 | 0.00 | 0.00 | 0.00 | 100 | 1014.9 |
| 20260508063827 | 11 | 282 | 0.0 | 0.0 | 0.00 | 0.00 | 0.00 | 100 | 1014.9 |
| 20260508062723 | 11 | 57 | 0.0 | 0.0 | 0.00 | 0.00 | 0.00 | 100 | 1014.9 |
| 20260508062220 | 11 | 33 | 0.0 | 0.0 | 0.00 | 0.00 | 0.00 | 100 | 1014.9 |
| 20260508061618 | 11 | 34 | 0.0 | 0.0 | 0.00 | 0.00 | 0.00 | 100 | 1014.9 |
| 20260508061116 | 11 | 57 | 0.0 | 0.0 | 0.00 | 0.00 | 0.00 | 100 | 1015.2 |
| 20260508060011 | 11 | 305 | 3.2 | 3.2 | 0.00 | 0.00 | 0.00 | 100 | 1014.9 |
| 20260508055508 | 11 | 113 | 0.0 | 0.0 | 0.00 | 0.00 | 0.00 | 100 | 1014.9 |
| 20260508055006 | 11 | 51 | 0.0 | 0.0 | 0.00 | 0.00 | 0.00 | 100 | 1014.9 |
| 20260508054504 | 11 | 338 | 0.0 | 0.0 | 0.00 | 0.00 | 0.00 | 100 | 1014.9 |
| 20260508053958 | 11 | 103 | 0.0 | 0.0 | 0.00 | 0.00 | 0.00 | 100 | 1014.9 |
| 20260508053456 | 11 | 136 | 0.0 | 0.0 | 0.00 | 0.00 | 0.00 | 100 | 1014.9 |
| 20260508052954 | 11 | 119 | 0.0 | 0.0 | 0.00 | 0.00 | 0.00 | 100 | 1014.9 |
| 20260508052452 | 11 | 44 | 0.0 | 0.0 | 0.00 | 0.00 | 0.00 | 100 | 1014.9 |
| 20260508051949 | 11 | 309 | 0.0 | 0.0 | 0.00 | 0.00 | 0.00 | 100 | 1014.9 |
| 20260508051447 | 11 | 325 | 0.0 | 0.0 | 0.00 | 0.00 | 0.00 | 100 | 1014.5 |
| 20260508050343 | 12 | 355 | 4.8 | 4.8 | 0.00 | 0.00 | 0.00 | 99 | 1014.9 |
| 20260508045841 | 12 | 324 | 0.0 | 4.8 | 0.00 | 0.00 | 0.00 | 99 | 1014.5 |
| 20260508045338 | 12 | 308 | 3.2 | 3.2 | 0.00 | 0.00 | 0.00 | 99 | 1014.9 |
| 20260508044836 | 12 | 310 | 4.8 | 4.8 | 0.00 | 0.00 | 0.00 | 99 | 1014.5 |
| 20260508043731 | 12 | 26 | 0.0 | 4.8 | 0.00 | 0.00 | 0.00 | 98 | 1014.9 |
| 20260508043229 | 12 | 320 | 1.6 | 3.2 | 0.00 | 0.00 | 0.00 | 99 | 1014.5 |
| 20260508042727 | 12 | 359 | 0.0 | 3.2 | 0.00 | 0.00 | 0.00 | 98 | 1014.5 |
| 20260508042224 | 12 | 322 | 0.0 | 4.8 | 0.00 | 0.00 | 0.00 | 98 | 1014.5 |
| 20260508041722 | 12 | 336 | 4.8 | 4.8 | 0.00 | 0.00 | 0.00 | 98 | 1014.9 |
| 20260508041219 | 12 | 328 | 4.8 | 6.4 | 0.00 | 0.00 | 0.00 | 98 | 1014.9 |
| 20260508040717 | 12 | 275 | 3.2 | 4.8 | 0.00 | 0.00 | 0.00 | 98 | 1014.5 |
| 20260508040215 | 12 | 338 | 3.2 | 6.4 | 0.00 | 0.00 | 0.00 | 98 | 1014.5 |
| 20260508035713 | 12 | 335 | 3.2 | 9.7 | 0.00 | 0.00 | 2.08 | 98 | 1014.5 |
| 20260508035210 | 12 | 341 | 6.4 | 9.7 | 0.00 | 0.00 | 2.08 | 98 | 1014.5 |
| 20260508034708 | 12 | 295 | 4.8 | 9.7 | 0.00 | 0.00 | 2.08 | 98 | 1014.5 |
| 20260508034206 | 12 | 330 | 4.8 | 6.4 | 0.00 | 0.00 | 2.08 | 97 | 1014.2 |
| 20260508033703 | 12 | 346 | 0.0 | 1.6 | 0.00 | 0.00 | 2.08 | 97 | 1014.2 |
| 20260508033200 | 12 | 322 | 3.2 | 6.4 | 0.00 | 0.00 | 2.08 | 97 | 1013.8 |
| 20260508032658 | 12 | 311 | 6.4 | 8.0 | 0.00 | 0.00 | 2.08 | 97 | 1013.8 |
| 20260508032155 | 12 | 5 | 4.8 | 6.4 | 0.00 | 0.00 | 2.08 | 97 | 1013.8 |
| 20260508031653 | 12 | 333 | 3.2 | 6.4 | 0.00 | 0.00 | 2.08 | 97 | 1013.8 |
| 20260508031151 | 12 | 20 | 0.0 | 6.4 | 0.00 | 0.00 | 2.08 | 97 | 1013.8 |
| 20260508030649 | 12 | 3 | 4.8 | 6.4 | 0.00 | 0.00 | 2.08 | 97 | 1013.5 |
| 20260508030146 | 12 | 15 | 4.8 | 6.4 | 0.00 | 0.00 | 2.08 | 97 | 1013.2 |
| 20260508025644 | 12 | 31 | 6.4 | 8.0 | 0.00 | 0.00 | 2.08 | 97 | 1013.2 |
| 20260508025142 | 12 | 16 | 4.8 | 9.7 | 0.00 | 0.00 | 2.08 | 97 | 1013.2 |
| 20260508024639 | 12 | 356 | 4.8 | 9.7 | 0.00 | 0.00 | 2.08 | 97 | 1013.5 |
| 20260508024137 | 12 | 322 | 9.7 | 9.7 | 0.00 | 0.00 | 2.08 | 96 | 1013.5 |
| 20260508023635 | 12 | 344 | 4.8 | 11.3 | 0.00 | 0.00 | 2.08 | 96 | 1013.5 |
| 20260508023132 | 12 | 6 | 8.0 | 8.0 | 0.00 | 0.00 | 2.08 | 96 | 1013.5 |
| 20260508022628 | 12 | 22 | 0.0 | 6.4 | 0.00 | 0.00 | 2.08 | 97 | 1013.5 |
| 20260508022126 | 12 | 2 | 1.6 | 8.0 | 0.00 | 0.00 | 2.08 | 97 | 1013.2 |
| 20260508021623 | 12 | 26 | 4.8 | 8.0 | 0.00 | 0.00 | 2.08 | 96 | 1013.5 |
| 20260508021121 | 12 | 28 | 4.8 | 8.0 | 0.00 | 0.00 | 2.08 | 97 | 1013.5 |
| 20260508020619 | 12 | 331 | 6.4 | 11.3 | 0.00 | 0.00 | 2.08 | 97 | 1013.2 |
| 20260508020116 | 12 | 22 | 4.8 | 9.7 | 0.00 | 0.00 | 2.08 | 96 | 1013.2 |
| 20260508015614 | 12 | 359 | 6.4 | 9.7 | 0.00 | 0.00 | 2.08 | 96 | 1013.2 |
| 20260508015111 | 12 | 21 | 8.0 | 11.3 | 0.00 | 0.00 | 2.08 | 96 | 1013.2 |
| 20260508014609 | 12 | 338 | 6.4 | 8.0 | 0.00 | 0.00 | 2.08 | 96 | 1013.2 |
| 20260508014106 | 12 | 335 | 1.6 | 4.8 | 0.00 | 0.00 | 2.08 | 96 | 1013.2 |
| 20260508013604 | 12 | 83 | 0.0 | 6.4 | 0.00 | 0.00 | 2.08 | 96 | 1012.8 |
| 20260508013102 | 12 | 45 | 3.2 | 4.8 | 0.00 | 0.00 | 2.08 | 96 | 1012.8 |
| 20260508012558 | 12 | 351 | 6.4 | 8.0 | 0.00 | 0.00 | 2.08 | 96 | 1012.8 |
| 20260508012056 | 12 | 59 | 4.8 | 6.4 | 0.00 | 0.00 | 2.08 | 96 | 1012.5 |
| 20260508011554 | 12 | 340 | 4.8 | 12.9 | 0.00 | 0.00 | 2.08 | 96 | 1012.5 |
| 20260508011051 | 12 | 33 | 6.4 | 12.9 | 0.00 | 0.00 | 2.08 | 96 | 1012.1 |
| 20260508010549 | 12 | 21 | 11.3 | 14.5 | 0.00 | 0.00 | 2.08 | 95 | 1012.1 |
| 20260508010047 | 12 | 46 | 9.7 | 14.5 | 0.00 | 0.00 | 2.08 | 95 | 1012.1 |
| 20260508005544 | 12 | 10 | 6.4 | 19.3 | 0.00 | 0.00 | 2.08 | 95 | 1011.8 |
| 20260508005042 | 12 | 340 | 16.1 | 16.1 | 0.00 | 0.00 | 2.08 | 95 | 1012.1 |
| 20260508004539 | 12 | 10 | 8.0 | 12.9 | 0.00 | 0.00 | 2.08 | 95 | 1012.1 |
| 20260508004037 | 12 | 26 | 6.4 | 16.1 | 0.00 | 0.00 | 2.08 | 94 | 1011.8 |
| 20260508003535 | 12 | 19 | 9.7 | 11.3 | 0.00 | 0.00 | 2.08 | 94 | 1012.5 |
| 20260508003032 | 12 | 15 | 9.7 | 16.1 | 0.00 | 0.00 | 2.08 | 94 | 1012.1 |
| 20260508002530 | 12 | 14 | 12.9 | 14.5 | 0.00 | 0.00 | 2.08 | 94 | 1012.1 |
| 20260508002028 | 12 | 23 | 4.8 | 9.7 | 0.00 | 0.00 | 2.08 | 95 | 1011.5 |
| 20260508001526 | 12 | 21 | 11.3 | 14.5 | 0.00 | 0.00 | 2.08 | 94 | 1011.8 |
| 20260508001023 | 12 | 11 | 9.7 | 17.7 | 0.00 | 0.00 | 2.08 | 95 | 1011.8 |
| 20260508000521 | 12 | 33 | 16.1 | 16.1 | 0.00 | 0.00 | 2.08 | 94 | 1011.5 |
| 20260508000018 | 12 | 27 | 8.0 | 20.9 | 0.00 | 0.00 | 2.08 | 94 | 1011.5 |
| 20260507235515 | 12 | 25 | 12.9 | 12.9 | 0.00 | 0.00 | 2.08 | 94 | 1011.1 |
| 20260507235013 | 12 | 59 | 14.5 | 17.7 | 0.00 | 0.00 | 2.08 | 95 | 1011.1 |
| 20260507234511 | 12 | 8 | 9.7 | 16.1 | 0.00 | 0.00 | 2.08 | 95 | 1011.1 |
| 20260507234009 | 12 | 54 | 11.3 | 16.1 | 0.00 | 0.00 | 2.08 | 94 | 1011.1 |
| 20260507233506 | 12 | 341 | 8.0 | 19.3 | 0.00 | 0.00 | 2.08 | 94 | 1011.1 |
| 20260507233004 | 12 | 36 | 14.5 | 22.5 | 0.00 | 0.00 | 2.08 | 95 | 1010.8 |
| 20260507232459 | 12 | 15 | 11.3 | 17.7 | 0.00 | 0.00 | 2.08 | 95 | 1011.1 |
| 20260507231957 | 12 | 18 | 12.9 | 12.9 | 0.00 | 0.00 | 2.08 | 95 | 1011.1 |
| 20260507231455 | 12 | 11 | 14.5 | 17.7 | 0.00 | 0.00 | 2.08 | 96 | 1011.1 |
| 20260507230953 | 13 | 325 | 16.1 | 17.7 | 0.00 | 0.00 | 2.08 | 96 | 1010.8 |
| 20260507230451 | 13 | 40 | 8.0 | 25.7 | 0.00 | 0.00 | 2.08 | 97 | 1011.1 |
| 20260507225949 | 13 | 44 | 4.8 | 9.7 | 0.00 | 0.00 | 2.08 | 98 | 1010.8 |
| 20260507225447 | 13 | 359 | 11.3 | 17.7 | 0.00 | 0.00 | 2.08 | 97 | 1010.8 |
| 20260507224944 | 13 | 0 | 9.7 | 14.5 | 0.00 | 0.00 | 2.08 | 97 | 1010.4 |
| 20260507224442 | 13 | 29 | 12.9 | 20.9 | 0.00 | 0.00 | 2.08 | 96 | 1010.8 |
| 20260507223940 | 13 | 27 | 14.5 | 22.5 | 0.00 | 0.00 | 2.08 | 96 | 1010.4 |
| 20260507223438 | 13 | 54 | 17.7 | 19.3 | 0.00 | 0.00 | 2.08 | 96 | 1010.4 |
| 20260507222935 | 13 | 77 | 9.7 | 14.5 | 0.00 | 0.00 | 2.08 | 96 | 1010.4 |
| 20260507222433 | 13 | 38 | 9.7 | 19.3 | 0.00 | 0.00 | 2.08 | 97 | 1010.4 |
| 20260507221931 | 13 | 30 | 8.0 | 11.3 | 0.00 | 0.00 | 2.08 | 97 | 1010.4 |
| 20260507221429 | 13 | 20 | 6.4 | 9.7 | 0.00 | 0.00 | 2.08 | 97 | 1010.8 |
| 20260507220926 | 13 | 27 | 11.3 | 14.5 | 0.00 | 0.00 | 2.08 | 96 | 1010.8 |
| 20260507220423 | 13 | 8 | 11.3 | 20.9 | 0.00 | 0.00 | 2.08 | 96 | 1010.4 |
| 20260507215921 | 13 | 28 | 12.9 | 20.9 | 0.00 | 0.00 | 2.08 | 97 | 1010.4 |
| 20260507215419 | 14 | 13 | 17.7 | 17.7 | 0.00 | 0.00 | 2.08 | 96 | 1010.4 |
| 20260507214917 | 14 | 309 | 22.5 | 24.1 | 0.00 | 0.00 | 2.08 | 95 | 1010.4 |
| 20260507214414 | 15 | 326 | 12.9 | 17.7 | 0.00 | 0.00 | 2.08 | 96 | 1010.4 |
| 20260507213912 | 15 | 84 | 14.5 | 20.9 | 0.00 | 0.00 | 2.08 | 95 | 1010.1 |
| 20260507213410 | 15 | 294 | 12.9 | 17.7 | 0.00 | 0.00 | 2.08 | 95 | 1009.8 |
| 20260507212907 | 15 | 5 | 12.9 | 14.5 | 0.00 | 0.00 | 2.08 | 95 | 1009.4 |
| 20260507212405 | 15 | 0 | 17.7 | 17.7 | 0.00 | 0.00 | 2.08 | 94 | 1009.4 |
| 20260507211903 | 16 | 21 | 20.9 | 20.9 | 0.00 | 0.00 | 2.08 | 95 | 1009.4 |
| 20260507211400 | 16 | 61 | 8.0 | 12.9 | 0.00 | 0.00 | 2.08 | 95 | 1009.4 |
| 20260507210858 | 16 | 334 | 11.3 | 14.5 | 0.00 | 0.00 | 2.08 | 96 | 1009.4 |
| 20260507210356 | 16 | 330 | 12.9 | 16.1 | 0.00 | 0.00 | 2.08 | 95 | 1009.4 |
| 20260507205853 | 16 | 355 | 16.1 | 19.3 | 0.00 | 0.00 | 2.08 | 95 | 1009.1 |
| 20260507205350 | 16 | 20 | 9.7 | 17.7 | 0.00 | 0.00 | 2.08 | 95 | 1009.1 |
| 20260507204848 | 16 | 359 | 12.9 | 17.7 | 0.00 | 0.00 | 2.08 | 95 | 1009.1 |
| 20260507204346 | 17 | 359 | 20.9 | 20.9 | 0.00 | 0.00 | 2.08 | 95 | 1008.8 |
| 20260507203844 | 17 | 21 | 17.7 | 17.7 | 0.00 | 0.00 | 2.08 | 95 | 1008.8 |
| 20260507203341 | 16 | 320 | 14.5 | 19.3 | 0.00 | 0.00 | 2.08 | 96 | 1009.1 |
| 20260507202839 | 17 | 13 | 8.0 | 16.1 | 0.00 | 0.00 | 2.08 | 97 | 1009.1 |
| 20260507202337 | 17 | 349 | 11.3 | 19.3 | 0.00 | 0.00 | 2.08 | 97 | 1008.8 |
| 20260507201834 | 16 | 357 | 14.5 | 17.7 | 0.00 | 0.00 | 2.08 | 96 | 1008.8 |
| 20260507201332 | 16 | 324 | 11.3 | 12.9 | 0.00 | 0.00 | 2.08 | 96 | 1008.8 |
| 20260507200830 | 17 | 17 | 14.5 | 25.7 | 0.00 | 0.00 | 2.08 | 95 | 1008.8 |
| 20260507200328 | 17 | 329 | 20.9 | 25.7 | 0.00 | 0.00 | 2.08 | 94 | 1008.8 |
| 20260507195826 | 18 | 354 | 17.7 | 22.5 | 0.00 | 0.00 | 2.08 | 93 | 1008.8 |
| 20260507195323 | 19 | 34 | 17.7 | 17.7 | 0.00 | 0.00 | 2.08 | 89 | 1008.8 |
| 20260507194821 | 21 | 342 | 11.3 | 24.1 | 0.00 | 0.00 | 2.08 | 85 | 1008.4 |
| 20260507194319 | 23 | 239 | 12.9 | 12.9 | 0.00 | 0.00 | 2.08 | 87 | 1008.1 |
| 20260507193817 | 25 | 198 | 12.9 | 12.9 | 0.00 | 0.00 | 2.08 | 86 | 1008.1 |
| 20260507193314 | 24 | 224 | 9.7 | 9.7 | 0.00 | 0.00 | 2.08 | 86 | 1008.4 |
| 20260507192812 | 24 | 226 | 9.7 | 9.7 | 0.00 | 0.00 | 2.08 | 87 | 1008.1 |
| 20260507192310 | 23 | 197 | 6.4 | 12.9 | 0.00 | 0.00 | 2.08 | 91 | 1008.4 |
| 20260507191807 | 23 | 235 | 6.4 | 11.3 | 0.00 | 0.00 | 2.08 | 89 | 1008.1 |
| 20260507191305 | 23 | 206 | 4.8 | 9.7 | 0.00 | 0.00 | 2.08 | 88 | 1008.1 |
| 20260507190802 | 24 | 217 | 9.7 | 11.3 | 0.00 | 0.00 | 2.08 | 90 | 1008.1 |
| 20260507190300 | 22 | 186 | 8.0 | 8.0 | 0.00 | 0.00 | 2.08 | 94 | 1007.7 |
| 20260507185758 | 22 | 188 | 6.4 | 6.4 | 0.00 | 0.00 | 2.08 | 92 | 1008.1 |
| 20260507185256 | 22 | 202 | 8.0 | 8.0 | 0.00 | 0.00 | 2.08 | 92 | 1008.4 |
| 20260507184754 | 22 | 292 | 14.5 | 14.5 | 0.00 | 0.00 | 2.08 | 94 | 1008.8 |
| 20260507184252 | 22 | 209 | 8.0 | 8.0 | 0.00 | 0.00 | 2.08 | 94 | 1008.8 |
| 20260507183749 | 22 | 203 | 3.2 | 3.2 | 0.00 | 0.00 | 2.08 | 96 | 1008.8 |
| 20260507183247 | 22 | 221 | 14.5 | 14.5 | 0.00 | 0.00 | 2.08 | 95 | 1009.1 |
| 20260507182745 | 21 | 198 | 4.8 | 4.8 | 0.00 | 0.00 | 2.08 | 96 | 1009.1 |
| 20260507182243 | 21 | 184 | 9.7 | 9.7 | 0.00 | 0.00 | 2.08 | 96 | 1009.1 |
| 20260507181740 | 21 | 258 | 6.4 | 9.7 | 0.00 | 0.00 | 2.08 | 96 | 1009.1 |
| 20260507181236 | 21 | 267 | 9.7 | 9.7 | 0.00 | 0.00 | 2.08 | 97 | 1009.1 |
| 20260507180733 | 21 | 237 | 6.4 | 16.1 | 0.00 | 0.00 | 2.08 | 97 | 1009.1 |
| 20260507180231 | 21 | 235 | 12.9 | 16.1 | 0.00 | 0.00 | 2.08 | 96 | 1009.1 |
| 20260507175729 | 22 | 265 | 12.9 | 16.1 | 0.00 | 0.00 | 2.08 | 96 | 1008.8 |
| 20260507175227 | 22 | 258 | 11.3 | 12.9 | 0.00 | 0.00 | 2.08 | 95 | 1008.8 |
| 20260507174725 | 22 | 221 | 8.0 | 14.5 | 0.00 | 0.00 | 2.08 | 99 | 1008.4 |
| 20260507174222 | 21 | 209 | 8.0 | 11.3 | 0.00 | 0.00 | 2.08 | 99 | 1008.4 |
| 20260507173720 | 21 | 207 | 8.0 | 12.9 | 0.00 | 0.00 | 2.08 | 98 | 1008.8 |
| 20260507173218 | 21 | 211 | 8.0 | 14.5 | 0.00 | 0.00 | 2.08 | 98 | 1008.8 |
| 20260507172716 | 21 | 202 | 6.4 | 12.9 | 0.00 | 0.00 | 2.08 | 99 | 1009.1 |
| 20260507172213 | 21 | 175 | 9.7 | 11.3 | 0.00 | 0.00 | 2.08 | 100 | 1009.1 |
| 20260507171711 | 21 | 153 | 11.3 | 12.9 | 0.00 | 0.00 | 2.08 | 100 | 1009.1 |
| 20260507171209 | 21 | 223 | 9.7 | 16.1 | 0.00 | 0.00 | 2.08 | 99 | 1009.4 |
| 20260507170707 | 21 | 204 | 11.3 | 12.9 | 0.00 | 0.00 | 2.08 | 100 | 1009.4 |
| 20260507170205 | 20 | 227 | 9.7 | 9.7 | 0.00 | 0.00 | 2.08 | 100 | 1009.4 |
| 20260507165703 | 20 | 253 | 6.4 | 8.0 | 0.00 | 0.00 | 2.08 | 100 | 1009.8 |
| 20260507165200 | 20 | 227 | 6.4 | 16.1 | 0.00 | 0.00 | 2.06 | 100 | 1009.8 |
| 20260507164658 | 20 | 280 | 11.3 | 17.7 | 0.00 | 0.00 | 2.06 | 100 | 1010.1 |
| 20260507164156 | 20 | 218 | 8.0 | 11.3 | 0.00 | 0.00 | 0.00 | 100 | 1010.1 |
| 20260507163654 | 20 | 260 | 11.3 | 11.3 | 0.00 | 0.00 | 1.98 | 100 | 1010.1 |
| 20260507163152 | 20 | 226 | 8.0 | 17.7 | 0.00 | 0.00 | 1.98 | 100 | 1010.4 |
| 20260507162649 | 20 | 224 | 8.0 | 11.3 | 0.00 | 0.00 | 1.96 | 100 | 1010.4 |
| 20260507162147 | 20 | 191 | 8.0 | 16.1 | 0.00 | 0.00 | 1.93 | 100 | 1010.4 |
| 20260507161644 | 20 | 215 | 6.4 | 14.5 | 0.00 | 0.00 | 1.93 | 100 | 1010.4 |
| 20260507161142 | 20 | 149 | 11.3 | 14.5 | 0.00 | 0.00 | 1.93 | 100 | 1010.1 |
| 20260507160640 | 20 | 176 | 6.4 | 14.5 | 0.00 | 0.00 | 1.93 | 100 | 1010.1 |
| 20260507160137 | 20 | 217 | 6.4 | 14.5 | 0.00 | 0.00 | 1.93 | 100 | 1010.1 |
| 20260507155635 | 20 | 169 | 6.4 | 16.1 | 0.00 | 0.00 | 1.91 | 100 | 1010.1 |
| 20260507155133 | 20 | 182 | 12.9 | 16.1 | 0.00 | 0.00 | 1.88 | 100 | 1010.1 |
| 20260507154631 | 20 | 176 | 8.0 | 14.5 | 0.00 | 0.00 | 1.85 | 100 | 1010.1 |
| 20260507154129 | 20 | 181 | 12.9 | 14.5 | 0.00 | 0.00 | 1.83 | 100 | 1010.1 |
| 20260507153626 | 20 | 209 | 9.7 | 9.7 | 0.00 | 0.00 | 1.80 | 100 | 1010.4 |
| 20260507153124 | 21 | 189 | 4.8 | 6.4 | 0.00 | 0.00 | 0.00 | 100 | 1010.4 |
| 20260507152622 | 20 | 174 | 3.2 | 6.4 | 0.00 | 0.00 | 0.00 | 100 | 1010.1 |
| 20260507152120 | 20 | 202 | 3.2 | 6.4 | 0.00 | 0.00 | 0.00 | 100 | 1010.4 |
| 20260507151618 | 20 | 186 | 8.0 | 8.0 | 0.00 | 0.00 | 0.00 | 100 | 1010.4 |
| 20260507151116 | 20 | 243 | 6.4 | 12.9 | 0.00 | 0.00 | 1.75 | 100 | 1010.8 |
| 20260507150613 | 20 | 215 | 9.7 | 9.7 | 0.00 | 0.00 | 1.73 | 100 | 1010.8 |
| 20260507150111 | 20 | 198 | 6.4 | 6.4 | 0.00 | 0.00 | 1.73 | 100 | 1010.8 |
| 20260507145609 | 20 | 189 | 8.0 | 9.7 | 0.00 | 0.00 | 1.70 | 100 | 1010.8 |
| 20260507145107 | 20 | 278 | 3.2 | 9.7 | 0.00 | 0.00 | 1.65 | 100 | 1011.1 |
| 20260507144604 | 20 | 239 | 8.0 | 11.3 | 0.00 | 0.00 | 1.63 | 100 | 1010.8 |
| 20260507144102 | 20 | 227 | 6.4 | 9.7 | 0.00 | 0.00 | 1.57 | 100 | 1010.8 |
| 20260507143600 | 20 | 199 | 4.8 | 8.0 | 0.00 | 0.00 | 1.55 | 100 | 1011.1 |
| 20260507143058 | 20 | 170 | 6.4 | 14.5 | 0.00 | 0.00 | 1.50 | 100 | 1011.1 |
| 20260507142556 | 20 | 223 | 6.4 | 11.3 | 0.00 | 0.00 | 1.47 | 99 | 1011.1 |
| 20260507142053 | 20 | 188 | 8.0 | 16.1 | 0.00 | 0.00 | 1.45 | 99 | 1010.8 |
| 20260507141551 | 20 | 191 | 4.8 | 11.3 | 0.00 | 0.00 | 1.42 | 99 | 1010.8 |
| 20260507141049 | 21 | 168 | 1.6 | 11.3 | 0.00 | 0.00 | 1.42 | 99 | 1011.1 |
| 20260507140547 | 21 | 206 | 9.7 | 11.3 | 0.00 | 0.00 | 1.42 | 99 | 1011.1 |
| 20260507140045 | 21 | 222 | 6.4 | 8.0 | 0.00 | 0.00 | 1.42 | 100 | 1011.1 |
| 20260507135542 | 20 | 229 | 6.4 | 8.0 | 0.00 | 0.00 | 1.42 | 100 | 1010.8 |
| 20260507135040 | 20 | 177 | 6.4 | 8.0 | 0.00 | 0.00 | 1.42 | 100 | 1010.8 |
| 20260507134538 | 20 | 243 | 11.3 | 11.3 | 0.00 | 0.00 | 1.42 | 99 | 1010.8 |
| 20260507134036 | 20 | 233 | 6.4 | 6.4 | 0.00 | 0.00 | 1.42 | 99 | 1010.8 |
| 20260507133533 | 20 | 268 | 1.6 | 6.4 | 0.00 | 0.00 | 1.42 | 99 | 1010.8 |
| 20260507133032 | 20 | 230 | 8.0 | 14.5 | 0.00 | 0.00 | 1.42 | 99 | 1010.8 |
| 20260507132529 | 20 | 217 | 6.4 | 11.3 | 0.00 | 0.00 | 1.42 | 99 | 1010.4 |
| 20260507132027 | 20 | 240 | 11.3 | 11.3 | 0.00 | 0.00 | 1.42 | 99 | 1010.4 |
| 20260507131525 | 20 | 231 | 6.4 | 12.9 | 0.00 | 0.00 | 1.42 | 99 | 1010.4 |
| 20260507131023 | 20 | 186 | 11.3 | 16.1 | 0.00 | 0.00 | 1.42 | 99 | 1010.4 |
| 20260507130520 | 20 | 205 | 8.0 | 11.3 | 0.00 | 0.00 | 1.42 | 100 | 1010.4 |
| 20260507130018 | 20 | 208 | 8.0 | 8.0 | 0.00 | 0.00 | 1.42 | 100 | 1010.4 |
| 20260507125516 | 20 | 208 | 8.0 | 11.3 | 0.00 | 0.00 | 1.42 | 100 | 1010.8 |
| 20260507125014 | 20 | 183 | 6.4 | 12.9 | 0.00 | 0.00 | 1.42 | 100 | 1010.8 |
| 20260507124512 | 20 | 222 | 9.7 | 9.7 | 0.00 | 0.00 | 1.42 | 100 | 1010.8 |
| 20260507124010 | 20 | 161 | 9.7 | 16.1 | 0.00 | 0.00 | 1.42 | 100 | 1010.8 |
| 20260507123507 | 20 | 173 | 8.0 | 11.3 | 0.00 | 0.00 | 1.42 | 100 | 1010.8 |
| 20260507123005 | 20 | 205 | 6.4 | 11.3 | 0.00 | 0.00 | 1.42 | 100 | 1011.1 |
| 20260507122459 | 20 | 192 | 3.2 | 9.7 | 0.00 | 0.00 | 1.42 | 100 | 1011.5 |
| 20260507121957 | 20 | 268 | 6.4 | 14.5 | 0.00 | 0.00 | 1.42 | 100 | 1011.1 |
| 20260507121455 | 20 | 226 | 11.3 | 14.5 | 0.00 | 0.00 | 1.42 | 100 | 1011.5 |
| 20260507120952 | 20 | 169 | 14.5 | 20.9 | 0.00 | 0.00 | 1.42 | 100 | 1011.5 |
| 20260507120450 | 20 | 188 | 8.0 | 20.9 | 0.00 | 0.00 | 1.42 | 100 | 1011.5 |
| 20260507115948 | 20 | 187 | 6.4 | 14.5 | 0.00 | 0.00 | 1.42 | 100 | 1011.5 |
| 20260507115446 | 20 | 181 | 6.4 | 14.5 | 0.00 | 0.00 | 1.42 | 100 | 1011.5 |
| 20260507114943 | 20 | 214 | 20.9 | 20.9 | 0.00 | 0.00 | 1.42 | 100 | 1011.5 |
| 20260507114441 | 20 | 206 | 9.7 | 16.1 | 0.00 | 0.00 | 1.42 | 100 | 1011.8 |
| 20260507113939 | 20 | 172 | 6.4 | 9.7 | 0.00 | 0.00 | 1.42 | 100 | 1011.8 |
| 20260507113437 | 20 | 208 | 11.3 | 12.9 | 0.00 | 0.00 | 1.42 | 100 | 1011.8 |
| 20260507112934 | 20 | 207 | 6.4 | 11.3 | 0.00 | 0.00 | 1.42 | 100 | 1011.8 |
| 20260507112432 | 20 | 229 | 9.7 | 12.9 | 0.00 | 0.00 | 1.40 | 100 | 1011.5 |
| 20260507111929 | 20 | 195 | 8.0 | 12.9 | 0.00 | 0.00 | 1.40 | 100 | 1011.5 |
| 20260507111426 | 20 | 278 | 4.8 | 14.5 | 0.00 | 0.00 | 1.40 | 100 | 1011.8 |
| 20260507110924 | 19 | 186 | 11.3 | 20.9 | 0.00 | 0.00 | 1.40 | 100 | 1011.8 |
| 20260507110422 | 19 | 183 | 9.7 | 14.5 | 0.00 | 0.00 | 1.40 | 100 | 1011.8 |
| 20260507105919 | 19 | 201 | 12.9 | 14.5 | 0.00 | 0.00 | 1.40 | 100 | 1011.5 |
| 20260507105417 | 19 | 200 | 11.3 | 11.3 | 0.00 | 0.00 | 1.37 | 100 | 1011.5 |
| 20260507104915 | 19 | 174 | 8.0 | 11.3 | 0.00 | 0.00 | 1.37 | 100 | 1011.5 |
| 20260507104413 | 19 | 193 | 8.0 | 8.0 | 0.00 | 0.00 | 1.35 | 100 | 1011.5 |
| 20260507103910 | 19 | 289 | 4.8 | 6.4 | 0.00 | 0.00 | 1.35 | 100 | 1011.8 |
| 20260507103408 | 19 | 234 | 3.2 | 4.8 | 0.00 | 0.00 | 1.32 | 100 | 1011.5 |
| 20260507102906 | 19 | 165 | 8.0 | 9.7 | 0.00 | 0.00 | 1.32 | 100 | 1011.5 |
| 20260507102404 | 19 | 170 | 8.0 | 8.0 | 0.00 | 0.00 | 1.32 | 100 | 1011.1 |
| 20260507101901 | 19 | 208 | 6.4 | 11.3 | 0.00 | 0.00 | 1.30 | 100 | 1011.1 |
| 20260507101359 | 19 | 206 | 6.4 | 9.7 | 0.00 | 0.00 | 0.00 | 100 | 1011.1 |
| 20260507100857 | 19 | 202 | 3.2 | 8.0 | 0.00 | 0.00 | 0.00 | 100 | 1011.1 |
| 20260507100355 | 19 | 230 | 8.0 | 8.0 | 0.00 | 0.00 | 1.24 | 100 | 1011.1 |
| 20260507095852 | 19 | 179 | 9.7 | 11.3 | 0.00 | 0.00 | 1.22 | 100 | 1010.8 |
| 20260507095349 | 19 | 156 | 12.9 | 19.3 | 0.00 | 0.00 | 1.22 | 100 | 1010.4 |
| 20260507094847 | 19 | 159 | 12.9 | 22.5 | 0.00 | 0.00 | 1.19 | 100 | 1010.4 |
| 20260507094345 | 19 | 199 | 12.9 | 16.1 | 0.00 | 0.00 | 1.19 | 100 | 1010.8 |
| 20260507093843 | 19 | 185 | 4.8 | 11.3 | 0.00 | 0.00 | 1.17 | 100 | 1011.1 |
| 20260507093341 | 19 | 171 | 1.6 | 4.8 | 0.00 | 0.00 | 1.17 | 100 | 1011.1 |
| 20260507092838 | 19 | 185 | 4.8 | 6.4 | 0.00 | 0.00 | 1.17 | 100 | 1011.1 |
| 20260507092336 | 19 | 210 | 9.7 | 9.7 | 0.00 | 0.00 | 1.14 | 100 | 1011.5 |
| 20260507091833 | 19 | 174 | 4.8 | 4.8 | 0.00 | 0.00 | 1.14 | 100 | 1011.5 |
| 20260507091331 | 19 | 170 | 6.4 | 6.4 | 0.00 | 0.00 | 1.12 | 100 | 1011.8 |
| 20260507090829 | 19 | 181 | 6.4 | 6.4 | 0.00 | 0.00 | 1.12 | 100 | 1011.8 |
| 20260507090327 | 19 | 211 | 3.2 | 4.8 | 0.00 | 0.00 | 1.07 | 100 | 1011.8 |
| 20260507085824 | 19 | 170 | 6.4 | 8.0 | 0.00 | 0.00 | 1.07 | 100 | 1011.8 |
| 20260507085322 | 19 | 182 | 4.8 | 4.8 | 0.00 | 0.00 | 0.00 | 100 | 1011.5 |
| 20260507084820 | 19 | 180 | 3.2 | 9.7 | 0.00 | 0.00 | 0.97 | 100 | 1011.8 |
| 20260507084317 | 19 | 199 | 4.8 | 6.4 | 0.00 | 0.00 | 0.89 | 100 | 1012.1 |
| 20260507083814 | 19 | 206 | 11.3 | 14.5 | 0.00 | 0.00 | 0.81 | 100 | 1012.5 |
| 20260507083312 | 19 | 196 | 11.3 | 11.3 | 0.00 | 0.00 | 0.71 | 100 | 1012.5 |
| 20260507082810 | 19 | 263 | 14.5 | 14.5 | 0.00 | 0.00 | 0.61 | 100 | 1012.5 |
| 20260507082308 | 19 | 175 | 8.0 | 8.0 | 0.00 | 0.00 | 0.56 | 100 | 1012.5 |
| 20260507081805 | 19 | 195 | 8.0 | 8.0 | 0.00 | 0.00 | 0.38 | 100 | 1012.5 |
| 20260507081303 | 19 | 205 | 3.2 | 6.4 | 0.00 | 0.00 | 0.33 | 100 | 1012.1 |
| 20260507080801 | 18 | 190 | 4.8 | 4.8 | 0.00 | 0.00 | 0.30 | 100 | 1012.1 |
| 20260507080259 | 19 | 157 | 4.8 | 4.8 | 0.00 | 0.00 | 0.00 | 100 | 1012.1 |
| 20260507075757 | 19 | 202 | 9.7 | 9.7 | 0.00 | 0.00 | 0.23 | 100 | 1012.1 |
| 20260507075254 | 19 | 247 | 4.8 | 6.4 | 0.00 | 0.00 | 0.20 | 100 | 1012.1 |
| 20260507074750 | 19 | 182 | 6.4 | 9.7 | 0.00 | 0.00 | 0.18 | 100 | 1011.8 |
| 20260507074244 | 19 | 195 | 4.8 | 4.8 | 0.00 | 0.00 | 0.15 | 100 | 1012.1 |
| 20260507073742 | 19 | 180 | 4.8 | 8.0 | 0.00 | 0.00 | 0.13 | 100 | 1012.1 |
| 20260507073239 | 19 | 210 | 4.8 | 4.8 | 0.00 | 0.00 | 0.10 | 100 | 1012.1 |
| 20260507072737 | 19 | 184 | 4.8 | 4.8 | 0.00 | 0.00 | 0.10 | 100 | 1012.1 |
| 20260507072235 | 19 | 227 | 3.2 | 3.2 | 0.00 | 0.00 | 0.10 | 100 | 1012.5 |
| 20260507071733 | 19 | 190 | 0.0 | 0.0 | 0.00 | 0.00 | 0.10 | 100 | 1012.5 |
| 20260507071230 | 18 | 207 | 0.0 | 3.2 | 0.00 | 0.00 | 0.10 | 100 | 1012.5 |
| 20260507070728 | 18 | 175 | 1.6 | 3.2 | 0.00 | 0.00 | 0.10 | 100 | 1012.5 |
| 20260507070226 | 18 | 153 | 0.0 | 1.6 | 0.00 | 0.00 | 0.10 | 100 | 1012.5 |
| 20260507065724 | 18 | 157 | 3.2 | 4.8 | 0.00 | 0.00 | 0.10 | 100 | 1012.5 |
| 20260507065221 | 18 | 157 | 0.0 | 1.6 | 0.00 | 0.00 | 0.10 | 100 | 1012.5 |